Miscellaneous Local Product
Issued by NWS Hastings, NE

Home | Current Version | Previous Version | Text Only | Print | Product List | Glossary On
Versions: 1 2 3 4 5 6 7 8 9 10 11 12 13 14 15 16 17 18 19 20 21 22 23 24 25 26 27 28 29 30 31 32 33 34 35 36 37 38 39 40 41 42 43 44 45 46 47 48 49 50
000
AXUS43 KGID 290602
MISGRI

GID CWA HOURLY WEATHER ROUNDUP
NATIONAL WEATHER SERVICE HASTINGS NE
100 AM CDT FRI MAY 29 2015

NOTE: "FAIR" INDICATES FEW OR NO CLOUDS BELOW 12,000 FEET WITH NO
SIGNIFICANT WEATHER AND/OR OBSTRUCTIONS TO VISIBILITY.

...SOUTH CENTRAL NEBRASKA...

CITY           SKY/WX    TMP DP  RH WIND       PRES   REMARKS
GRAND ISLAND   CLOUDY    62  59  90 S5        29.92R
HASTINGS       CLOUDY    62  59  90 CALM      29.93S
KEARNEY        CLOUDY    61  55  82 S8        29.94S
ORD            CLOUDY    58  56  93 W3        29.87F
YORK           CLOUDY    66  59  77 W15       29.94R
AURORA         LGT RAIN  62  61  97 SE3       29.92F
LEXINGTON      CLOUDY    57  55  92 S6        29.94S
HOLDREGE       CLOUDY    60  53  76 CALM      29.94S
HEBRON         RAIN      63  58  84 W3        29.97R

...NEBRASKA PANHANDLE...

CITY           SKY/WX    TMP DP  RH WIND       PRES   REMARKS
CHADRON        CLOUDY    54  52  93 W6        30.04S
ALLIANCE       CLOUDY    55  53  93 NW8       30.03F
SCOTTSBLUFF    CLOUDY    55  52  89 N7        30.07F
SIDNEY         CLOUDY    53  50  89 N5        30.08F

...WESTERN AND NORTH CENTRAL NEBRASKA...

CITY           SKY/WX    TMP DP  RH WIND       PRES   REMARKS
VALENTINE      CLOUDY    57  55  93 NW9       29.94R
AINSWORTH      CLOUDY    60  56  88 CALM      29.92F
ONEILL         TSTM      62  59  92 W12       29.89F
BROKEN BOW     CLOUDY    59  57  93 MISG      29.92R
IMPERIAL       CLOUDY    54  52  93 N7        30.02R
NORTH PLATTE   CLOUDY    58  54  86 W12       29.97S
MCCOOK         CLOUDY    56  54  93 W6        29.99S

...EASTERN NEBRASKA...

CITY           SKY/WX    TMP DP  RH WIND       PRES   REMARKS
NORFOLK        CLOUDY    68  64  87 S10       29.87F
SO SIOUX CITY  MOCLDY    67  62  84 SE8       29.88F
TEKAMAH        MOCLDY    65  63  93 SE5       29.90F
COLUMBUS       CLOUDY    70  61  73 S13G18    29.92R
ALBION         CLOUDY    69  60  74 S7        29.88F
OMAHA EPPLEY   CLOUDY    68  63  84 S14       29.92S
OFFUTT AFB     MOCLDY    66  63  90 SE9       29.92S
MILLARD        MOCLDY    67  64  90 SE6       29.93R
LINCOLN        CLOUDY    68  64  87 S12       29.93R
NEBRASKA CITY  MOCLDY    66  64  96 S10       29.95R
BEATRICE       CLOUDY    68  64  86 S10       29.94S
FALLS CITY     MOCLDY    65  62  90 S8        29.94S

...NORTHERN KANSAS...

CITY           SKY/WX    TMP DP  RH WIND       PRES   REMARKS
GOODLAND       CLOUDY    54  52  93 SW6       30.03R
HILL CITY      CLOUDY    58  55  90 S5        29.97R
NORTON         PTCLDY    55  48  76 CALM      29.95F
SMITH CENTER   MOCLDY    61  55  82 N3        29.93R
HAYS           CLOUDY    63  54  72 CALM      29.88F
RUSSELL        LGT RAIN  64  57  78 W13       29.85F
CONCORDIA      CLOUDY    61  60  97 E9        29.90F
SALINA         CLOUDY    66  58  75 E10       29.93F
TOPEKA         MOCLDY    66  64  93 SE8       29.95F



USA.gov is the U.S. government's official web portal to all federal, state and local government web resources and services.